Year,Month,Day,Hour,Minute,Value (Times are PST for temperature in C)
2009,05,23,00,00,7.00
2009,05,23,00,01,7.00
2009,05,23,00,02,7.00
2009,05,23,00,03,7.00
2009,05,23,00,04,7.00
2009,05,23,00,05,7.00
2009,05,23,00,06,7.00
2009,05,23,00,07,7.00
2009,05,23,00,08,7.00
2009,05,23,00,09,7.00
2009,05,23,00,10,7.00
2009,05,23,00,11,7.00
2009,05,23,00,12,7.00
2009,05,23,00,13,7.00
2009,05,23,00,14,7.00
2009,05,23,00,15,7.10
2009,05,23,00,16,7.10
2009,05,23,00,17,7.10
2009,05,23,00,18,7.10
2009,05,23,00,19,7.10
2009,05,23,00,20,7.10
2009,05,23,00,21,7.10
2009,05,23,00,22,7.10
2009,05,23,00,23,7.20
2009,05,23,00,24,7.20
2009,05,23,00,25,7.20
2009,05,23,00,26,7.20
2009,05,23,00,27,7.20
2009,05,23,00,28,7.20
2009,05,23,00,29,7.20
2009,05,23,00,30,7.20
2009,05,23,00,31,7.20
2009,05,23,00,32,7.20
2009,05,23,00,33,7.20
2009,05,23,00,34,7.20
2009,05,23,00,35,7.20
2009,05,23,00,36,7.20
2009,05,23,00,37,7.20
2009,05,23,00,38,7.20
2009,05,23,00,39,7.20
2009,05,23,00,40,7.30
2009,05,23,00,41,7.20
2009,05,23,00,42,7.30
2009,05,23,00,43,7.20
2009,05,23,00,44,7.30
2009,05,23,00,45,7.30
2009,05,23,00,46,7.30
2009,05,23,00,47,7.30
2009,05,23,00,48,7.30
2009,05,23,00,49,7.30
2009,05,23,00,50,7.30
2009,05,23,00,51,7.30
2009,05,23,00,52,7.30
2009,05,23,00,53,7.30
2009,05,23,00,54,7.30
2009,05,23,00,55,7.30
2009,05,23,00,56,7.30
2009,05,23,00,57,7.30
2009,05,23,00,58,7.30
2009,05,23,00,59,7.30
2009,05,23,01,00,7.30
2009,05,23,01,01,7.30
2009,05,23,01,02,7.30
2009,05,23,01,03,7.30
2009,05,23,01,04,7.30
2009,05,23,01,05,7.30
2009,05,23,01,06,7.30
2009,05,23,01,07,7.30
2009,05,23,01,08,7.30
2009,05,23,01,09,7.30
2009,05,23,01,10,7.30
2009,05,23,01,11,7.30
2009,05,23,01,12,7.30
2009,05,23,01,13,7.30
2009,05,23,01,14,7.30
2009,05,23,01,15,7.30
2009,05,23,01,16,7.30
2009,05,23,01,17,7.20
2009,05,23,01,18,7.30
2009,05,23,01,19,7.20
2009,05,23,01,20,7.20
2009,05,23,01,21,7.20
2009,05,23,01,22,7.20
2009,05,23,01,23,7.20
2009,05,23,01,24,7.20
2009,05,23,01,25,7.20
2009,05,23,01,26,7.20
2009,05,23,01,27,7.20
2009,05,23,01,28,7.30
2009,05,23,01,29,7.30
2009,05,23,01,30,7.30
2009,05,23,01,31,7.30
2009,05,23,01,32,7.30
2009,05,23,01,33,7.30
2009,05,23,01,34,7.30
2009,05,23,01,35,7.30
2009,05,23,01,36,7.30
2009,05,23,01,37,7.30
2009,05,23,01,38,7.30
2009,05,23,01,39,7.30
2009,05,23,01,40,7.30
2009,05,23,01,41,7.30
2009,05,23,01,42,7.30
2009,05,23,01,43,7.30
2009,05,23,01,44,7.30
2009,05,23,01,45,7.30
2009,05,23,01,46,7.20
2009,05,23,01,47,7.20
2009,05,23,01,48,7.20
2009,05,23,01,49,7.20
2009,05,23,01,50,7.20
2009,05,23,01,51,7.20
2009,05,23,01,52,7.20
2009,05,23,01,53,7.20
2009,05,23,01,54,7.10
2009,05,23,01,55,7.10
2009,05,23,01,56,7.10
2009,05,23,01,57,7.00
2009,05,23,01,58,7.00
2009,05,23,01,59,6.90
2009,05,23,02,00,6.90
2009,05,23,02,01,6.90
2009,05,23,02,02,6.90
2009,05,23,02,03,6.80
2009,05,23,02,04,6.80
2009,05,23,02,05,6.80
2009,05,23,02,06,6.80
2009,05,23,02,07,6.80
2009,05,23,02,08,6.70
2009,05,23,02,09,6.70
2009,05,23,02,10,6.70
2009,05,23,02,11,6.60
2009,05,23,02,12,6.60
2009,05,23,02,13,6.60
2009,05,23,02,14,6.50
2009,05,23,02,15,6.50
2009,05,23,02,16,6.40
2009,05,23,02,17,6.40
2009,05,23,02,18,6.40
2009,05,23,02,19,6.30
2009,05,23,02,20,6.30
2009,05,23,02,21,6.30
2009,05,23,02,22,6.30
2009,05,23,02,23,6.20
2009,05,23,02,24,6.20
2009,05,23,02,25,6.20
2009,05,23,02,26,6.20
2009,05,23,02,27,6.20
2009,05,23,02,28,6.10
2009,05,23,02,29,6.10
2009,05,23,02,30,6.10
2009,05,23,02,31,6.10
2009,05,23,02,32,6.10
2009,05,23,02,33,6.10
2009,05,23,02,34,6.10
2009,05,23,02,35,6.00
2009,05,23,02,36,6.00
2009,05,23,02,37,5.90
2009,05,23,02,38,5.90
2009,05,23,02,39,5.90
2009,05,23,02,40,5.90
2009,05,23,02,41,5.90
2009,05,23,02,42,5.80
2009,05,23,02,43,5.80
2009,05,23,02,44,5.80
2009,05,23,02,45,5.80
2009,05,23,02,46,5.70
2009,05,23,02,47,5.70
2009,05,23,02,48,5.70
2009,05,23,02,49,5.70
2009,05,23,02,50,5.70
2009,05,23,02,51,5.60
2009,05,23,02,52,5.60
2009,05,23,02,53,5.60
2009,05,23,02,54,5.60
2009,05,23,02,55,5.50
2009,05,23,02,56,5.50
2009,05,23,02,57,5.50
2009,05,23,02,58,5.40
2009,05,23,02,59,5.40
2009,05,23,03,00,5.40
2009,05,23,03,01,5.40
2009,05,23,03,02,5.30
2009,05,23,03,03,5.30
2009,05,23,03,04,5.30
2009,05,23,03,05,5.30
2009,05,23,03,06,5.20
2009,05,23,03,07,5.20
2009,05,23,03,08,5.20
2009,05,23,03,09,5.10
2009,05,23,03,10,5.10
2009,05,23,03,11,5.10
2009,05,23,03,12,5.10
2009,05,23,03,13,5.10
2009,05,23,03,14,5.20
2009,05,23,03,15,5.20
2009,05,23,03,16,5.20
2009,05,23,03,17,5.20
2009,05,23,03,18,5.20
2009,05,23,03,19,5.20
2009,05,23,03,20,5.20
2009,05,23,03,21,5.20
2009,05,23,03,22,5.20
2009,05,23,03,23,5.20
2009,05,23,03,24,5.20
2009,05,23,03,25,5.20
2009,05,23,03,26,5.20
2009,05,23,03,27,5.20
2009,05,23,03,28,5.20
2009,05,23,03,29,5.20
2009,05,23,03,30,5.20
2009,05,23,03,31,5.20
2009,05,23,03,32,5.20
2009,05,23,03,33,5.20
2009,05,23,03,34,5.20
2009,05,23,03,35,5.20
2009,05,23,03,36,5.20
2009,05,23,03,37,5.20
2009,05,23,03,38,5.20
2009,05,23,03,39,5.20
2009,05,23,03,40,5.20
2009,05,23,03,41,5.20
2009,05,23,03,42,5.10
2009,05,23,03,43,5.10
2009,05,23,03,44,5.10
2009,05,23,03,45,5.10
2009,05,23,03,46,5.10
2009,05,23,03,47,5.10
2009,05,23,03,48,5.00
2009,05,23,03,49,5.00
2009,05,23,03,50,5.00
2009,05,23,03,51,5.00
2009,05,23,03,52,4.90
2009,05,23,03,53,4.90
2009,05,23,03,54,4.90
2009,05,23,03,55,4.90
2009,05,23,03,56,4.80
2009,05,23,03,57,4.80
2009,05,23,03,58,4.80
2009,05,23,03,59,4.80
2009,05,23,04,00,4.80
2009,05,23,04,01,4.80
2009,05,23,04,02,4.70
2009,05,23,04,03,4.70
2009,05,23,04,04,4.70
2009,05,23,04,05,4.70
2009,05,23,04,06,4.70
2009,05,23,04,07,4.70
2009,05,23,04,08,4.70
2009,05,23,04,09,4.60
2009,05,23,04,10,4.60
2009,05,23,04,11,4.60
2009,05,23,04,12,4.60
2009,05,23,04,13,4.60
2009,05,23,04,14,4.60
2009,05,23,04,15,4.60
2009,05,23,04,16,4.60
2009,05,23,04,17,4.60
2009,05,23,04,18,4.60
2009,05,23,04,19,4.60
2009,05,23,04,20,4.60
2009,05,23,04,21,4.50
2009,05,23,04,22,4.50
2009,05,23,04,23,4.50
2009,05,23,04,24,4.50
2009,05,23,04,25,4.50
2009,05,23,04,26,4.50
2009,05,23,04,27,4.40
2009,05,23,04,28,4.40
2009,05,23,04,29,4.40
2009,05,23,04,30,4.40
2009,05,23,04,31,4.40
2009,05,23,04,32,4.30
2009,05,23,04,33,4.30
2009,05,23,04,34,4.30
2009,05,23,04,35,4.30
2009,05,23,04,36,4.20
2009,05,23,04,37,4.20
2009,05,23,04,38,4.20
2009,05,23,04,39,4.20
2009,05,23,04,40,4.20
2009,05,23,04,41,4.20
2009,05,23,04,42,4.10
2009,05,23,04,43,4.10
2009,05,23,04,44,4.10
2009,05,23,04,45,4.10
2009,05,23,04,46,4.10
2009,05,23,04,47,4.00
2009,05,23,04,48,4.00
2009,05,23,04,49,4.00
2009,05,23,04,50,4.00
2009,05,23,04,51,3.90
2009,05,23,04,52,3.90
2009,05,23,04,53,3.90
2009,05,23,04,54,3.90
2009,05,23,04,55,3.90
2009,05,23,04,56,3.90
2009,05,23,04,57,3.80
2009,05,23,04,58,3.80
2009,05,23,04,59,3.80
2009,05,23,05,00,3.80
2009,05,23,05,01,3.80
2009,05,23,05,02,3.80
2009,05,23,05,03,3.80
2009,05,23,05,04,3.80
2009,05,23,05,05,3.70
2009,05,23,05,06,3.70
2009,05,23,05,07,3.70
2009,05,23,05,08,3.70
2009,05,23,05,09,3.70
2009,05,23,05,10,3.70
2009,05,23,05,11,3.70
2009,05,23,05,12,3.70
2009,05,23,05,13,3.70
2009,05,23,05,14,3.60
2009,05,23,05,15,3.60
2009,05,23,05,16,3.60
2009,05,23,05,17,3.60
2009,05,23,05,18,3.60
2009,05,23,05,19,3.60
2009,05,23,05,20,3.60
2009,05,23,05,21,3.60
2009,05,23,05,22,3.60
2009,05,23,05,23,3.60
2009,05,23,05,24,3.60
2009,05,23,05,25,3.60
2009,05,23,05,26,3.60
2009,05,23,05,27,3.60
2009,05,23,05,28,3.60
2009,05,23,05,29,3.60
2009,05,23,05,30,3.60
2009,05,23,05,31,3.60
2009,05,23,05,32,3.60
2009,05,23,05,33,3.60
2009,05,23,05,34,3.60
2009,05,23,05,35,3.60
2009,05,23,05,36,3.60
2009,05,23,05,37,3.60
2009,05,23,05,38,3.60
2009,05,23,05,39,3.60
2009,05,23,05,40,3.60
2009,05,23,05,41,3.60
2009,05,23,05,42,3.60
2009,05,23,05,43,3.60
2009,05,23,05,44,3.60
2009,05,23,05,45,3.60
2009,05,23,05,46,3.60
2009,05,23,05,47,3.60
2009,05,23,05,48,3.60
2009,05,23,05,49,3.60
2009,05,23,05,50,3.60
2009,05,23,05,51,3.60
2009,05,23,05,52,3.60
2009,05,23,05,53,3.60
2009,05,23,05,54,3.60
2009,05,23,05,55,3.60
2009,05,23,05,56,3.60
2009,05,23,05,57,3.60
2009,05,23,05,58,3.60
2009,05,23,05,59,3.60
2009,05,23,06,00,3.60
2009,05,23,06,01,3.60
2009,05,23,06,02,3.60
2009,05,23,06,03,3.60
2009,05,23,06,04,3.50
2009,05,23,06,05,3.50
2009,05,23,06,06,3.50
2009,05,23,06,07,3.50
2009,05,23,06,08,3.50
2009,05,23,06,09,3.50
2009,05,23,06,10,3.40
2009,05,23,06,11,3.40
2009,05,23,06,12,3.40
2009,05,23,06,13,3.40
2009,05,23,06,14,3.40
2009,05,23,06,15,3.40
2009,05,23,06,16,3.40
2009,05,23,06,17,3.40
2009,05,23,06,18,3.40
2009,05,23,06,19,3.40
2009,05,23,06,20,3.40
2009,05,23,06,21,3.40
2009,05,23,06,22,3.40
2009,05,23,06,23,3.50
2009,05,23,06,24,3.50
2009,05,23,06,25,3.50
2009,05,23,06,26,3.60
2009,05,23,06,27,3.60
2009,05,23,06,28,3.70
2009,05,23,06,29,3.70
2009,05,23,06,30,3.80
2009,05,23,06,31,3.90
2009,05,23,06,32,4.00
2009,05,23,06,33,4.10
2009,05,23,06,34,4.10
2009,05,23,06,35,4.20
2009,05,23,06,36,4.20
2009,05,23,06,37,4.20
2009,05,23,06,38,4.20
2009,05,23,06,39,4.30
2009,05,23,06,40,4.30
2009,05,23,06,41,4.30
2009,05,23,06,42,4.30
2009,05,23,06,43,4.40
2009,05,23,06,44,4.40
2009,05,23,06,45,4.40
2009,05,23,06,46,4.50
2009,05,23,06,47,4.50
2009,05,23,06,48,4.60
2009,05,23,06,49,4.60
2009,05,23,06,50,4.60
2009,05,23,06,51,4.60
2009,05,23,06,52,4.60
2009,05,23,06,53,4.70
2009,05,23,06,54,4.70
2009,05,23,06,55,4.70
2009,05,23,06,56,4.80
2009,05,23,06,57,4.80
2009,05,23,06,58,4.90
2009,05,23,06,59,4.90
2009,05,23,07,00,5.00
2009,05,23,07,01,5.10
2009,05,23,07,02,5.10
2009,05,23,07,03,5.20
2009,05,23,07,04,5.30
2009,05,23,07,05,5.30
2009,05,23,07,06,5.40
2009,05,23,07,07,5.50
2009,05,23,07,08,5.50
2009,05,23,07,09,5.60
2009,05,23,07,10,5.60
2009,05,23,07,11,5.60
2009,05,23,07,12,5.70
2009,05,23,07,13,5.80
2009,05,23,07,14,5.80
2009,05,23,07,15,5.90
2009,05,23,07,16,5.90
2009,05,23,07,17,6.00
2009,05,23,07,18,6.00
2009,05,23,07,19,6.10
2009,05,23,07,20,6.20
2009,05,23,07,21,6.30
2009,05,23,07,22,6.30
2009,05,23,07,23,6.40
2009,05,23,07,24,6.40
2009,05,23,07,25,6.50
2009,05,23,07,26,6.60
2009,05,23,07,27,6.60
2009,05,23,07,28,6.70
2009,05,23,07,29,6.70
2009,05,23,07,30,6.80
2009,05,23,07,31,6.80
2009,05,23,07,32,6.80
2009,05,23,07,33,6.90
2009,05,23,07,34,7.00
2009,05,23,07,35,7.10
2009,05,23,07,36,7.10
2009,05,23,07,37,7.20
2009,05,23,07,38,7.20
2009,05,23,07,39,7.20
2009,05,23,07,40,7.30
2009,05,23,07,41,7.30
2009,05,23,07,42,7.30
2009,05,23,07,43,7.40
2009,05,23,07,44,7.50
2009,05,23,07,45,7.50
2009,05,23,07,46,7.60
2009,05,23,07,47,7.70
2009,05,23,07,48,7.70
2009,05,23,07,49,7.80
2009,05,23,07,50,7.80
2009,05,23,07,51,7.90
2009,05,23,07,52,7.90
2009,05,23,07,53,8.00
2009,05,23,07,54,8.10
2009,05,23,07,55,8.20
2009,05,23,07,56,8.20
2009,05,23,07,57,8.30
2009,05,23,07,58,8.40
2009,05,23,07,59,8.40
2009,05,23,08,00,8.50
2009,05,23,08,01,8.70
2009,05,23,08,02,8.70
2009,05,23,08,03,8.80
2009,05,23,08,04,8.80
2009,05,23,08,05,8.90
2009,05,23,08,06,9.00
2009,05,23,08,07,9.10
2009,05,23,08,08,9.20
2009,05,23,08,09,9.20
2009,05,23,08,10,9.10
2009,05,23,08,11,9.10
2009,05,23,08,12,9.10
2009,05,23,08,13,9.00
2009,05,23,08,14,9.00
2009,05,23,08,15,8.90
2009,05,23,08,16,8.90
2009,05,23,08,17,8.90
2009,05,23,08,18,9.00
2009,05,23,08,19,9.00
2009,05,23,08,20,9.10
2009,05,23,08,21,9.10
2009,05,23,08,22,9.20
2009,05,23,08,23,9.20
2009,05,23,08,24,9.20
2009,05,23,08,25,9.20
2009,05,23,08,26,9.30
2009,05,23,08,27,9.30
2009,05,23,08,28,9.30
2009,05,23,08,29,9.40
2009,05,23,08,30,9.40
2009,05,23,08,31,9.40
2009,05,23,08,32,9.50
2009,05,23,08,33,9.50
2009,05,23,08,34,9.60
2009,05,23,08,35,9.60
2009,05,23,08,36,9.60
2009,05,23,08,37,9.70
2009,05,23,08,38,9.80
2009,05,23,08,39,9.80
2009,05,23,08,40,9.90
2009,05,23,08,41,10.00
2009,05,23,08,42,10.10
2009,05,23,08,43,10.20
2009,05,23,08,44,10.20
2009,05,23,08,45,10.30
2009,05,23,08,46,10.30
2009,05,23,08,47,10.30
2009,05,23,08,48,10.30
2009,05,23,08,49,10.30
2009,05,23,08,50,10.30
2009,05,23,08,51,10.30
2009,05,23,08,52,10.30
2009,05,23,08,53,10.40
2009,05,23,08,54,10.40
2009,05,23,08,55,10.40
2009,05,23,08,56,10.50
2009,05,23,08,57,10.50
2009,05,23,08,58,10.50
2009,05,23,08,59,10.50
2009,05,23,09,00,10.60
2009,05,23,09,01,10.60
2009,05,23,09,02,10.50
2009,05,23,09,03,10.50
2009,05,23,09,04,10.50
2009,05,23,09,05,10.60
2009,05,23,09,06,10.60
2009,05,23,09,07,10.60
2009,05,23,09,08,10.60
2009,05,23,09,09,10.60
2009,05,23,09,10,10.60
2009,05,23,09,11,10.70
2009,05,23,09,12,10.80
2009,05,23,09,13,10.80
2009,05,23,09,14,10.90
2009,05,23,09,15,11.00
2009,05,23,09,16,11.00
2009,05,23,09,17,11.10
2009,05,23,09,18,11.20
2009,05,23,09,19,11.30
2009,05,23,09,20,11.30
2009,05,23,09,21,11.40
2009,05,23,09,22,11.50
2009,05,23,09,23,11.50
2009,05,23,09,24,11.60
2009,05,23,09,25,11.60
2009,05,23,09,26,11.70
2009,05,23,09,27,11.70
2009,05,23,09,28,11.70
2009,05,23,09,29,11.70
2009,05,23,09,30,11.70
2009,05,23,09,31,11.70
2009,05,23,09,32,11.70
2009,05,23,09,33,11.70
2009,05,23,09,34,11.70
2009,05,23,09,35,11.70
2009,05,23,09,36,11.70
2009,05,23,09,37,11.80
2009,05,23,09,38,11.80
2009,05,23,09,39,11.90
2009,05,23,09,40,12.00
2009,05,23,09,41,12.10
2009,05,23,09,42,12.10
2009,05,23,09,43,12.20
2009,05,23,09,44,12.20
2009,05,23,09,45,12.30
2009,05,23,09,46,12.30
2009,05,23,09,47,12.40
2009,05,23,09,48,12.50
2009,05,23,09,49,12.50
2009,05,23,09,50,12.60
2009,05,23,09,51,12.70
2009,05,23,09,52,12.70
2009,05,23,09,53,12.80
2009,05,23,09,54,12.80
2009,05,23,09,55,12.80
2009,05,23,09,56,12.80
2009,05,23,09,57,12.80
2009,05,23,09,58,12.90
2009,05,23,09,59,12.90
2009,05,23,10,00,12.90
2009,05,23,10,01,12.90
2009,05,23,10,02,12.90
2009,05,23,10,03,13.00
2009,05,23,10,04,13.00
2009,05,23,10,05,13.10
2009,05,23,10,06,13.20
2009,05,23,10,07,13.20
2009,05,23,10,08,13.20
2009,05,23,10,09,13.20
2009,05,23,10,10,13.20
2009,05,23,10,11,13.20
2009,05,23,10,12,13.20
2009,05,23,10,13,13.20
2009,05,23,10,14,13.20
2009,05,23,10,15,13.20
2009,05,23,10,16,13.20
2009,05,23,10,17,13.10
2009,05,23,10,18,13.10
2009,05,23,10,19,13.10
2009,05,23,10,20,13.10
2009,05,23,10,21,13.20
2009,05,23,10,22,13.20
2009,05,23,10,23,13.20
2009,05,23,10,24,13.30
2009,05,23,10,25,13.30
2009,05,23,10,26,13.30
2009,05,23,10,27,13.30
2009,05,23,10,28,13.30
2009,05,23,10,29,13.40
2009,05,23,10,30,13.40
2009,05,23,10,31,13.40
2009,05,23,10,32,13.40
2009,05,23,10,33,13.40
2009,05,23,10,34,13.40
2009,05,23,10,35,13.30
2009,05,23,10,36,13.30
2009,05,23,10,37,13.30
2009,05,23,10,38,13.30
2009,05,23,10,39,13.30
2009,05,23,10,40,13.30
2009,05,23,10,41,13.30
2009,05,23,10,42,13.30
2009,05,23,10,43,13.30
2009,05,23,10,44,13.40
2009,05,23,10,45,13.40
2009,05,23,10,46,13.50
2009,05,23,10,47,13.60
2009,05,23,10,48,13.70
2009,05,23,10,49,13.80
2009,05,23,10,50,13.80
2009,05,23,10,51,13.80
2009,05,23,10,52,13.80
2009,05,23,10,53,13.80
2009,05,23,10,54,13.80
2009,05,23,10,55,13.80
2009,05,23,10,56,13.80
2009,05,23,10,57,13.80
2009,05,23,10,58,13.80
2009,05,23,10,59,13.80
2009,05,23,11,00,13.90
2009,05,23,11,01,13.90
2009,05,23,11,02,13.90
2009,05,23,11,03,13.90
2009,05,23,11,04,13.90
2009,05,23,11,05,13.90
2009,05,23,11,06,13.90
2009,05,23,11,07,13.90
2009,05,23,11,08,14.00
2009,05,23,11,09,14.00
2009,05,23,11,10,14.00
2009,05,23,11,11,14.00
2009,05,23,11,12,14.00
2009,05,23,11,13,14.00
2009,05,23,11,14,13.90
2009,05,23,11,15,13.90
2009,05,23,11,16,13.90
2009,05,23,11,17,13.80
2009,05,23,11,18,13.90
2009,05,23,11,19,13.90
2009,05,23,11,20,14.00
2009,05,23,11,21,14.00
2009,05,23,11,22,14.00
2009,05,23,11,23,14.00
2009,05,23,11,24,14.00
2009,05,23,11,25,14.10
2009,05,23,11,26,14.20
2009,05,23,11,27,14.20
2009,05,23,11,28,14.30
2009,05,23,11,29,14.30
2009,05,23,11,30,14.30
2009,05,23,11,31,14.40
2009,05,23,11,32,14.40
2009,05,23,11,33,14.40
2009,05,23,11,34,14.40
2009,05,23,11,35,14.40
2009,05,23,11,36,14.40
2009,05,23,11,37,14.40
2009,05,23,11,38,14.50
2009,05,23,11,39,14.50
2009,05,23,11,40,14.50
2009,05,23,11,41,14.40
2009,05,23,11,42,14.50
2009,05,23,11,43,14.40
2009,05,23,11,44,14.40
2009,05,23,11,45,14.50
2009,05,23,11,46,14.50
2009,05,23,11,47,14.60
2009,05,23,11,48,14.70
2009,05,23,11,49,14.80
2009,05,23,11,50,14.80
2009,05,23,11,51,14.80
2009,05,23,11,52,14.80
2009,05,23,11,53,14.90
2009,05,23,11,54,14.90
2009,05,23,11,55,14.90
2009,05,23,11,56,15.00
2009,05,23,11,57,15.00
2009,05,23,11,58,15.00
2009,05,23,11,59,15.00
2009,05,23,12,00,15.00
2009,05,23,12,01,15.00
2009,05,23,12,02,15.00
2009,05,23,12,03,15.00
2009,05,23,12,04,15.00
2009,05,23,12,05,15.00
2009,05,23,12,06,15.00
2009,05,23,12,07,15.00
2009,05,23,12,08,15.00
2009,05,23,12,09,15.00
2009,05,23,12,10,15.00
2009,05,23,12,11,15.00
2009,05,23,12,12,15.00
2009,05,23,12,13,14.90
2009,05,23,12,14,14.90
2009,05,23,12,15,14.90
2009,05,23,12,16,14.90
2009,05,23,12,17,14.90
2009,05,23,12,18,14.90
2009,05,23,12,19,14.90
2009,05,23,12,20,14.80
2009,05,23,12,21,14.80
2009,05,23,12,22,14.90
2009,05,23,12,23,14.90
2009,05,23,12,24,14.90
2009,05,23,12,25,14.90
2009,05,23,12,26,15.00
2009,05,23,12,27,15.00
2009,05,23,12,28,15.00
2009,05,23,12,29,15.00
2009,05,23,12,30,15.00
2009,05,23,12,31,15.00
2009,05,23,12,32,15.00
2009,05,23,12,33,15.00
2009,05,23,12,34,15.10
2009,05,23,12,35,15.20
2009,05,23,12,36,15.20
2009,05,23,12,37,15.20
2009,05,23,12,38,15.20
2009,05,23,12,39,15.20
2009,05,23,12,40,15.20
2009,05,23,12,41,15.20
2009,05,23,12,42,15.20
2009,05,23,12,43,15.20
2009,05,23,12,44,15.20
2009,05,23,12,45,15.20
2009,05,23,12,46,15.30
2009,05,23,12,47,15.30
2009,05,23,12,48,15.30
2009,05,23,12,49,15.30
2009,05,23,12,50,15.30
2009,05,23,12,51,15.40
2009,05,23,12,52,15.40
2009,05,23,12,53,15.50
2009,05,23,12,54,15.60
2009,05,23,12,55,15.70
2009,05,23,12,56,15.80
2009,05,23,12,57,15.90
2009,05,23,12,58,15.90
2009,05,23,12,59,16.00
2009,05,23,13,00,16.00
2009,05,23,13,01,16.10
2009,05,23,13,02,16.10
2009,05,23,13,03,16.20
2009,05,23,13,04,16.20
2009,05,23,13,05,16.20
2009,05,23,13,06,16.20
2009,05,23,13,07,16.20
2009,05,23,13,08,16.30
2009,05,23,13,09,16.30
2009,05,23,13,10,16.30
2009,05,23,13,11,16.30
2009,05,23,13,12,16.30
2009,05,23,13,13,16.20
2009,05,23,13,14,16.20
2009,05,23,13,15,16.20
2009,05,23,13,16,16.20
2009,05,23,13,17,16.10
2009,05,23,13,18,16.10
2009,05,23,13,19,16.10
2009,05,23,13,20,16.10
2009,05,23,13,21,16.10
2009,05,23,13,22,16.10
2009,05,23,13,23,16.10
2009,05,23,13,24,16.00
2009,05,23,13,25,16.00
2009,05,23,13,26,16.00
2009,05,23,13,27,16.10
2009,05,23,13,28,16.10
2009,05,23,13,29,16.10
2009,05,23,13,30,16.10
2009,05,23,13,31,16.00
2009,05,23,13,32,16.00
2009,05,23,13,33,16.00
2009,05,23,13,34,15.90
2009,05,23,13,35,15.90
2009,05,23,13,36,15.80
2009,05,23,13,37,15.80
2009,05,23,13,38,15.80
2009,05,23,13,39,15.90
2009,05,23,13,40,15.90
2009,05,23,13,41,15.90
2009,05,23,13,42,15.90
2009,05,23,13,43,15.90
2009,05,23,13,44,15.90
2009,05,23,13,45,15.90
2009,05,23,13,46,15.80
2009,05,23,13,47,15.70
2009,05,23,13,48,15.50
2009,05,23,13,49,15.40
2009,05,23,13,50,15.40
2009,05,23,13,51,15.30
2009,05,23,13,52,15.20
2009,05,23,13,53,15.20
2009,05,23,13,54,15.20
2009,05,23,13,55,15.20
2009,05,23,13,56,15.20
2009,05,23,13,57,15.20
2009,05,23,13,58,15.40
2009,05,23,13,59,15.40
2009,05,23,14,00,15.50
2009,05,23,14,01,15.50
2009,05,23,14,02,15.60
2009,05,23,14,03,15.70
2009,05,23,14,04,15.80
2009,05,23,14,05,15.80
2009,05,23,14,06,15.80
2009,05,23,14,07,15.90
2009,05,23,14,08,16.00
2009,05,23,14,09,16.00
2009,05,23,14,10,16.00
2009,05,23,14,11,16.10
2009,05,23,14,12,16.10
2009,05,23,14,13,16.00
2009,05,23,14,14,16.00
2009,05,23,14,15,16.00
2009,05,23,14,16,16.00
2009,05,23,14,17,16.10
2009,05,23,14,18,16.20
2009,05,23,14,19,16.20
2009,05,23,14,20,16.30
2009,05,23,14,21,16.40
2009,05,23,14,22,16.40
2009,05,23,14,23,16.40
2009,05,23,14,24,16.40
2009,05,23,14,25,16.40
2009,05,23,14,26,16.40
2009,05,23,14,27,16.40
2009,05,23,14,28,16.30
2009,05,23,14,29,16.20
2009,05,23,14,30,16.20
2009,05,23,14,31,16.00
2009,05,23,14,32,16.00
2009,05,23,14,33,15.90
2009,05,23,14,34,15.70
2009,05,23,14,35,15.50
2009,05,23,14,36,15.40
2009,05,23,14,37,15.30
2009,05,23,14,38,15.30
2009,05,23,14,39,15.30
2009,05,23,14,40,15.20
2009,05,23,14,41,15.20
2009,05,23,14,42,15.30
2009,05,23,14,43,15.40
2009,05,23,14,44,15.50
2009,05,23,14,45,15.50
2009,05,23,14,46,15.50
2009,05,23,14,47,15.40
2009,05,23,14,48,15.30
2009,05,23,14,49,15.30
2009,05,23,14,50,15.20
2009,05,23,14,51,15.10
2009,05,23,14,52,15.00
2009,05,23,14,53,15.00
2009,05,23,14,54,15.00
2009,05,23,14,55,15.20
2009,05,23,14,56,15.20
2009,05,23,14,57,15.30
2009,05,23,14,58,15.40
2009,05,23,14,59,15.40
2009,05,23,15,00,15.50
2009,05,23,15,01,15.60
2009,05,23,15,02,15.50
2009,05,23,15,03,15.50
2009,05,23,15,04,15.50
2009,05,23,15,05,15.40
2009,05,23,15,06,15.30
2009,05,23,15,07,15.20
2009,05,23,15,08,15.10
2009,05,23,15,09,15.10
2009,05,23,15,10,15.10
2009,05,23,15,11,15.10
2009,05,23,15,12,15.20
2009,05,23,15,13,15.20
2009,05,23,15,14,15.20
2009,05,23,15,15,15.20
2009,05,23,15,16,15.30
2009,05,23,15,17,15.30
2009,05,23,15,18,15.30
2009,05,23,15,19,15.30
2009,05,23,15,20,15.30
2009,05,23,15,21,15.20
2009,05,23,15,22,15.30
2009,05,23,15,23,15.30
2009,05,23,15,24,15.30
2009,05,23,15,25,15.20
2009,05,23,15,26,15.20
2009,05,23,15,27,15.20
2009,05,23,15,28,15.20
2009,05,23,15,29,15.20
2009,05,23,15,30,15.20
2009,05,23,15,31,15.20
2009,05,23,15,32,15.30
2009,05,23,15,33,15.30
2009,05,23,15,34,15.40
2009,05,23,15,35,15.50
2009,05,23,15,36,15.60
2009,05,23,15,37,15.60
2009,05,23,15,38,15.70
2009,05,23,15,39,15.70
2009,05,23,15,40,15.70
2009,05,23,15,41,15.80
2009,05,23,15,42,15.70
2009,05,23,15,43,15.80
2009,05,23,15,44,15.80
2009,05,23,15,45,15.80
2009,05,23,15,46,15.80
2009,05,23,15,47,15.90
2009,05,23,15,48,16.00
2009,05,23,15,49,16.20
2009,05,23,15,50,16.30
2009,05,23,15,51,16.40
2009,05,23,15,52,16.60
2009,05,23,15,53,16.80
2009,05,23,15,54,16.90
2009,05,23,15,55,16.90
2009,05,23,15,56,16.80
2009,05,23,15,57,16.80
2009,05,23,15,58,16.80
2009,05,23,15,59,16.90
2009,05,23,16,00,17.00
2009,05,23,16,01,17.10
2009,05,23,16,02,17.20
2009,05,23,16,03,17.30
2009,05,23,16,04,17.30
2009,05,23,16,05,17.30
2009,05,23,16,06,17.20
2009,05,23,16,07,17.20
2009,05,23,16,08,17.30
2009,05,23,16,09,17.30
2009,05,23,16,10,17.40
2009,05,23,16,11,17.50
2009,05,23,16,12,17.60
2009,05,23,16,13,17.60
2009,05,23,16,14,17.70
2009,05,23,16,15,17.70
2009,05,23,16,16,17.70
2009,05,23,16,17,17.70
2009,05,23,16,18,17.60
2009,05,23,16,19,17.60
2009,05,23,16,20,17.50
2009,05,23,16,21,17.30
2009,05,23,16,22,17.10
2009,05,23,16,23,17.00
2009,05,23,16,24,16.80
2009,05,23,16,25,16.60
2009,05,23,16,26,16.50
2009,05,23,16,27,16.30
2009,05,23,16,28,16.20
2009,05,23,16,29,16.10
2009,05,23,16,30,16.10
2009,05,23,16,31,16.00
2009,05,23,16,32,16.00
2009,05,23,16,33,16.00
2009,05,23,16,34,15.90
2009,05,23,16,35,15.80
2009,05,23,16,36,15.70
2009,05,23,16,37,15.70
2009,05,23,16,38,15.60
2009,05,23,16,39,15.50
2009,05,23,16,40,15.40
2009,05,23,16,41,15.20
2009,05,23,16,42,15.00
2009,05,23,16,43,15.00
2009,05,23,16,44,14.90
2009,05,23,16,45,14.80
2009,05,23,16,46,14.70
2009,05,23,16,47,14.70
2009,05,23,16,48,14.60
2009,05,23,16,49,14.70
2009,05,23,16,50,14.70
2009,05,23,16,51,14.70
2009,05,23,16,52,14.70
2009,05,23,16,53,14.70
2009,05,23,16,54,14.70
2009,05,23,16,55,14.70
2009,05,23,16,56,14.70
2009,05,23,16,57,14.70
2009,05,23,16,58,14.70
2009,05,23,16,59,14.70
2009,05,23,17,00,14.60
2009,05,23,17,01,14.50
2009,05,23,17,02,14.40
2009,05,23,17,03,14.40
2009,05,23,17,04,14.30
2009,05,23,17,05,14.10
2009,05,23,17,06,14.00
2009,05,23,17,07,14.00
2009,05,23,17,08,14.00
2009,05,23,17,09,14.00
2009,05,23,17,10,14.00
2009,05,23,17,11,14.10
2009,05,23,17,12,14.10
2009,05,23,17,13,14.10
2009,05,23,17,14,14.10
2009,05,23,17,15,14.10
2009,05,23,17,16,14.20
2009,05,23,17,17,14.20
2009,05,23,17,18,14.20
2009,05,23,17,19,14.10
2009,05,23,17,20,14.10
2009,05,23,17,21,14.00
2009,05,23,17,22,13.90
2009,05,23,17,23,13.90
2009,05,23,17,24,13.90
2009,05,23,17,25,13.80
2009,05,23,17,26,13.80
2009,05,23,17,27,13.80
2009,05,23,17,28,13.80
2009,05,23,17,29,13.80
2009,05,23,17,30,13.80
2009,05,23,17,31,13.80
2009,05,23,17,32,13.90
2009,05,23,17,33,13.90
2009,05,23,17,34,13.90
2009,05,23,17,35,14.00
2009,05,23,17,36,14.00
2009,05,23,17,37,14.10
2009,05,23,17,38,14.10
2009,05,23,17,39,14.00
2009,05,23,17,40,14.00
2009,05,23,17,41,14.00
2009,05,23,17,42,13.90